Time,TemperatureF,DewpointF,PressureIn,WindDirection,WindDirectionDegrees,WindSpeedMPH,WindSpeedGustMPH,Humidity,HourlyPrecipIn,Conditions,Clouds,dailyrainin,SoftwareType,DateUTC
2013-09-26 15:42:00,76.3,-31.3,29.53,NW,315,2.0,2.0,1,0.00,,,0.05,Weather View 32 v70,2013-09-26 19:42:00,
2013-09-26 15:47:00,76.7,-31.0,29.53,NE,45,3.0,8.0,1,0.00,,,0.05,Weather View 32 v70,2013-09-26 19:47:00,
2013-09-26 15:53:00,76.7,-31.0,29.53,East,90,2.0,8.0,1,0.00,,,0.05,Weather View 32 v70,2013-09-26 19:53:00,
2013-09-26 15:58:00,76.8,-31.0,29.53,ENE,67,1.0,9.0,1,0.00,,,0.05,Weather View 32 v70,2013-09-26 19:58:00,
2013-09-26 16:03:00,76.5,-31.2,29.53,North,360,2.0,9.0,1,0.00,,,0.05,Weather View 32 v70,2013-09-26 20:03:00,
2013-09-26 16:08:00,76.8,-31.0,29.53,North,360,3.0,10.0,1,0.00,,,0.05,Weather View 32 v70,2013-09-26 20:08:00,
2013-09-26 16:13:00,77.4,-30.6,29.53,North,360,5.0,10.0,1,0.00,,,0.05,Weather View 32 v70,2013-09-26 20:13:00,
2013-09-26 16:18:00,78.3,-30.1,29.53,NNE,22,6.0,11.0,1,0.00,,,0.05,Weather View 32 v70,2013-09-26 20:18:00,
2013-09-26 16:23:00,77.9,-30.3,29.53,NNE,22,6.0,11.0,1,0.00,,,0.05,Weather View 32 v70,2013-09-26 20:23:00,
2013-09-26 16:28:00,77.4,-30.6,29.53,NE,45,7.0,11.0,1,0.00,,,0.05,Weather View 32 v70,2013-09-26 20:28:00,
2013-09-26 16:33:00,77.5,-30.6,29.53,East,90,6.0,11.0,1,0.00,,,0.05,Weather View 32 v70,2013-09-26 20:33:00,
2013-09-26 16:38:00,77.5,-30.6,29.53,NE,45,6.0,11.0,1,0.00,,,0.05,Weather View 32 v70,2013-09-26 20:38:00,
2013-09-26 16:43:00,77.1,-30.8,29.53,NE,45,6.0,11.0,1,0.00,,,0.05,Weather View 32 v70,2013-09-26 20:43:00,
2013-09-26 16:48:00,76.8,-31.0,29.53,North,360,2.0,11.0,1,0.00,,,0.05,Weather View 32 v70,2013-09-26 20:48:00,
2013-09-26 16:53:00,77.3,-30.7,29.53,North,360,7.0,11.0,1,0.00,,,0.05,Weather View 32 v70,2013-09-26 20:53:00,
2013-09-26 16:58:00,77.5,-30.6,29.53,NE,45,9.0,11.0,1,0.00,,,0.05,Weather View 32 v70,2013-09-26 20:58:00,
2013-09-26 17:03:00,77.7,-30.4,29.53,ENE,67,6.0,12.0,1,0.00,,,0.05,Weather View 32 v70,2013-09-26 21:03:00,
2013-09-26 17:08:00,77.8,-30.4,29.53,NE,45,6.0,12.0,1,0.00,,,0.05,Weather View 32 v70,2013-09-26 21:08:00,
2013-09-26 17:13:00,77.9,-30.3,29.54,NE,45,2.0,12.0,1,0.00,,,0.05,Weather View 32 v70,2013-09-26 21:13:00,
2013-09-26 17:18:00,78.4,-30.0,29.54,North,360,5.0,12.0,1,0.00,,,0.05,Weather View 32 v70,2013-09-26 21:18:00,
2013-09-26 17:23:00,78.8,-29.8,29.54,ENE,67,4.0,12.0,1,0.00,,,0.05,Weather View 32 v70,2013-09-26 21:23:00,
2013-09-26 17:28:00,78.9,-29.7,29.54,North,360,7.0,12.0,1,0.00,,,0.05,Weather View 32 v70,2013-09-26 21:28:00,
2013-09-26 17:33:00,78.9,-29.7,29.54,NNE,22,4.0,12.0,1,0.00,,,0.05,Weather View 32 v70,2013-09-26 21:33:00,
2013-09-26 17:38:00,78.6,-29.9,29.55,North,360,4.0,12.0,1,0.00,,,0.05,Weather View 32 v70,2013-09-26 21:38:00,
2013-09-26 17:43:00,78.5,-30.0,29.55,North,360,4.0,12.0,1,0.00,,,0.05,Weather View 32 v70,2013-09-26 21:43:00,
2013-09-26 17:48:00,78.3,-30.1,29.55,North,360,7.0,12.0,1,0.00,,,0.05,Weather View 32 v70,2013-09-26 21:48:00,
2013-09-26 17:53:00,78.4,-30.0,29.55,NE,45,4.0,12.0,1,0.00,,,0.05,Weather View 32 v70,2013-09-26 21:53:00,
2013-09-26 17:58:00,78.3,-30.1,29.55,North,360,1.0,12.0,1,0.00,,,0.05,Weather View 32 v70,2013-09-26 21:58:00,
2013-09-26 18:03:00,77.9,-30.3,29.55,NNW,337,2.0,12.0,1,0.00,,,0.05,Weather View 32 v70,2013-09-26 22:03:00,
2013-09-26 18:08:00,77.9,-30.3,29.55,NE,45,4.0,12.0,1,0.00,,,0.05,Weather View 32 v70,2013-09-26 22:08:00,
2013-09-26 18:13:00,77.6,-30.5,29.55,NE,45,5.0,12.0,1,0.00,,,0.05,Weather View 32 v70,2013-09-26 22:13:00,
2013-09-26 18:18:00,77.1,-30.8,29.55,NE,45,2.0,12.0,1,0.00,,,0.05,Weather View 32 v70,2013-09-26 22:18:00,
2013-09-26 18:23:00,76.8,-31.0,29.55,NE,45,2.0,12.0,1,0.00,,,0.05,Weather View 32 v70,2013-09-26 22:23:00,
2013-09-26 18:28:00,76.7,-31.0,29.56,NE,45,4.0,12.0,1,0.00,,,0.05,Weather View 32 v70,2013-09-26 22:28:00,
2013-09-26 18:33:00,76.3,-31.3,29.56,NNE,22,2.0,12.0,1,0.00,,,0.05,Weather View 32 v70,2013-09-26 22:33:00,
2013-09-26 18:39:00,76.3,-31.3,29.56,NE,45,2.0,12.0,1,0.00,,,0.05,Weather View 32 v70,2013-09-26 22:39:00,
2013-09-26 18:44:00,76.0,-31.5,29.56,NNE,22,2.0,11.0,1,0.00,,,0.05,Weather View 32 v70,2013-09-26 22:44:00,
2013-09-26 18:49:00,75.6,-31.7,29.56,NE,45,4.0,11.0,1,0.00,,,0.05,Weather View 32 v70,2013-09-26 22:49:00,
2013-09-26 18:54:00,75.2,-31.9,29.56,NNE,22,3.0,9.0,1,0.00,,,0.05,Weather View 32 v70,2013-09-26 22:54:00,
2013-09-26 18:59:00,74.7,-32.2,29.56,NE,45,2.0,7.0,1,0.00,,,0.05,Weather View 32 v70,2013-09-26 22:59:00,
2013-09-26 19:04:00,74.4,-32.4,29.56,NE,45,4.0,7.0,1,0.00,,,0.05,Weather View 32 v70,2013-09-26 23:04:00,
2013-09-26 19:09:00,73.9,-32.7,29.56,NE,45,4.0,7.0,1,0.00,,,0.05,Weather View 32 v70,2013-09-26 23:09:00,
2013-09-26 19:14:00,73.5,-33.0,29.57,NNE,22,3.0,7.0,1,0.00,,,0.05,Weather View 32 v70,2013-09-26 23:14:00,
2013-09-26 19:19:00,73.0,-33.3,29.57,NNE,22,2.0,7.0,1,0.00,,,0.05,Weather View 32 v70,2013-09-26 23:19:00,
2013-09-26 19:24:00,72.7,-33.4,29.57,NE,45,3.0,7.0,1,0.00,,,0.05,Weather View 32 v70,2013-09-26 23:24:00,
2013-09-26 19:29:00,72.3,-33.7,29.57,NE,45,3.0,6.0,1,0.00,,,0.05,Weather View 32 v70,2013-09-26 23:29:00,
2013-09-26 19:34:00,71.9,-33.9,29.57,NNE,22,2.0,6.0,1,0.00,,,0.05,Weather View 32 v70,2013-09-26 23:34:00,
2013-09-26 19:39:00,71.8,-34.0,29.57,NE,45,3.0,6.0,1,0.00,,,0.05,Weather View 32 v70,2013-09-26 23:39:00,
2013-09-26 19:44:00,71.6,-34.1,29.57,NNE,22,2.0,6.0,1,0.00,,,0.05,Weather View 32 v70,2013-09-26 23:44:00,
2013-09-26 19:49:00,71.4,-34.2,29.57,North,360,2.0,6.0,1,0.00,,,0.05,Weather View 32 v70,2013-09-26 23:49:00,
2013-09-26 19:54:00,71.3,-34.3,29.57,NNE,22,2.0,6.0,1,0.00,,,0.05,Weather View 32 v70,2013-09-26 23:54:00,
2013-09-26 19:59:00,71.1,-34.4,29.57,NNE,22,2.0,6.0,1,0.00,,,0.05,Weather View 32 v70,2013-09-26 23:59:00,
2013-09-26 20:04:00,70.9,-34.5,29.57,North,360,2.0,5.0,1,0.00,,,0.05,Weather View 32 v70,2013-09-27 00:04:00,
2013-09-26 20:10:00,70.7,-34.6,29.57,NNW,337,2.0,5.0,1,0.00,,,0.05,Weather View 32 v70,2013-09-27 00:10:00,
2013-09-26 20:15:00,70.5,-34.8,29.57,NNE,22,1.0,5.0,1,0.00,,,0.05,Weather View 32 v70,2013-09-27 00:15:00,
2013-09-26 20:20:00,70.4,-34.8,29.57,NNE,22,5.0,6.0,1,0.00,,,0.05,Weather View 32 v70,2013-09-27 00:20:00,
2013-09-26 20:25:00,70.3,-34.9,29.57,North,360,2.0,6.0,1,0.00,,,0.05,Weather View 32 v70,2013-09-27 00:25:00,
2013-09-26 20:30:00,70.1,-35.0,29.57,NNE,22,1.0,6.0,1,0.00,,,0.05,Weather View 32 v70,2013-09-27 00:30:00,
2013-09-26 20:35:00,70.1,-35.0,29.57,North,360,1.0,6.0,1,0.00,,,0.05,Weather View 32 v70,2013-09-27 00:35:00,
2013-09-26 20:40:00,70.1,-35.0,29.57,NNE,22,2.0,6.0,1,0.00,,,0.05,Weather View 32 v70,2013-09-27 00:40:00,
2013-09-26 20:45:00,69.9,-35.1,29.58,North,360,2.0,6.0,1,0.00,,,0.05,Weather View 32 v70,2013-09-27 00:45:00,
2013-09-26 20:50:00,69.8,-35.2,29.58,NNW,337,3.0,6.0,1,0.00,,,0.05,Weather View 32 v70,2013-09-27 00:50:00,
2013-09-26 20:55:00,69.6,-35.3,29.58,North,360,1.0,6.0,1,0.00,,,0.05,Weather View 32 v70,2013-09-27 00:55:00,
2013-09-26 21:00:00,69.5,-35.4,29.58,North,360,1.0,6.0,1,0.00,,,0.05,Weather View 32 v70,2013-09-27 01:00:00,
2013-09-26 21:05:00,69.3,-35.5,29.59,NNE,22,2.0,6.0,1,0.00,,,0.05,Weather View 32 v70,2013-09-27 01:05:00,
2013-09-26 21:11:00,69.2,-35.5,29.59,NE,45,2.0,6.0,1,0.00,,,0.05,Weather View 32 v70,2013-09-27 01:11:00,
2013-09-26 21:16:00,69.1,-35.6,29.59,NE,45,4.0,6.0,1,0.00,,,0.05,Weather View 32 v70,2013-09-27 01:16:00,
2013-09-26 21:21:00,68.9,-35.7,29.59,NE,45,3.0,6.0,1,0.00,,,0.05,Weather View 32 v70,2013-09-27 01:21:00,
2013-09-26 21:26:00,68.9,-35.7,29.59,North,360,4.0,6.0,1,0.00,,,0.05,Weather View 32 v70,2013-09-27 01:26:00,
2013-09-26 21:31:00,68.8,-35.8,29.59,North,360,3.0,6.0,1,0.00,,,0.05,Weather View 32 v70,2013-09-27 01:31:00,
2013-09-26 21:36:00,68.9,-35.7,29.59,North,360,7.0,8.0,1,0.00,,,0.05,Weather View 32 v70,2013-09-27 01:36:00,
2013-09-26 21:41:00,68.9,-35.7,29.59,NE,45,2.0,9.0,1,0.00,,,0.05,Weather View 32 v70,2013-09-27 01:41:00,
2013-09-26 21:46:00,68.9,-35.7,29.59,North,360,2.0,9.0,1,0.00,,,0.05,Weather View 32 v70,2013-09-27 01:46:00,
2013-09-26 21:51:00,68.7,-35.8,29.59,NNE,22,2.0,9.0,1,0.00,,,0.05,Weather View 32 v70,2013-09-27 01:51:00,
2013-09-26 21:56:00,68.6,-35.9,29.59,NE,45,3.0,9.0,1,0.00,,,0.05,Weather View 32 v70,2013-09-27 01:56:00,